Location: Spring Creek
(38.2870°N, 100.2160°W)
Time: 22:51:43
(UTC+00:00)

ASTRO E2 - Pass Details

Date: 08 May 2021
Orbit: 507 x 514 km, 31.4° (Epoch: 20 June)

Event Time Altitude Azimuth Distance (km) Brightness Sun altitude
Rises 02:02:48 0° 254° (WSW) 2,610 7.1 -5.2°
Reaches altitude 10° 02:05:13 10° 244° (WSW) 1,724 5.9 -5.6°
Maximum altitude 02:08:42 30° 182° (S) 938 3.8 -6.2°
Drops below altitude 10° 02:12:12 10° 120° (ESE) 1,721 4.7 -6.8°
Enters shadow 02:12:28 - 118° (ESE) 1,819 4.8 -6.9°
